| time (UTC) | temp C | wind direction | speed KPH | gust KPH | rain 1hr cm | rain 24hr cm | rain mn cm | humidity % | barometer mb |
| 20260507061039 | 10 | 30 | 0.0 | 6.4 | 0.00 | 0.00 | 0.00 | 84 | 1015.7 |
| 20260507060539 | 10 | 298 | 0.0 | 4.8 | 0.00 | 0.00 | 0.00 | 84 | 1015.6 |
| 20260507060048 | 10 | 265 | 0.0 | 3.2 | 0.00 | 0.00 | 0.00 | 84 | 1015.7 |
| 20260507055539 | 10 | 309 | 0.0 | 3.2 | 0.00 | 0.00 | 0.00 | 84 | 1015.6 |
| 20260507055038 | 9 | 9 | 0.0 | 3.2 | 0.00 | 0.00 | 0.00 | 84 | 1015.5 |
| 20260507054546 | 9 | 0 | 0.0 | 3.2 | 0.00 | 0.00 | 0.00 | 84 | 1015.5 |
| 20260507054041 | 9 | 0 | 0.0 | 4.8 | 0.00 | 0.00 | 0.00 | 84 | 1015.4 |
| 20260507053539 | 9 | 44 | 0.0 | 4.8 | 0.00 | 0.00 | 0.00 | 84 | 1015.5 |
| 20260507053048 | 9 | 0 | 0.0 | 3.2 | 0.00 | 0.00 | 0.00 | 84 | 1015.4 |
| 20260507052538 | 9 | 0 | 0.0 | 3.2 | 0.00 | 0.00 | 0.00 | 84 | 1015.4 |
| 20260507052038 | 9 | 298 | 0.0 | 3.2 | 0.00 | 0.00 | 0.00 | 84 | 1015.4 |
| 20260507051549 | 9 | 0 | 0.0 | 1.6 | 0.00 | 0.00 | 0.00 | 84 | 1015.3 |
| 20260507051041 | 9 | 0 | 0.0 | 3.2 | 0.00 | 0.00 | 0.00 | 84 | 1015.3 |
| 20260507050539 | 9 | 0 | 0.0 | 3.2 | 0.00 | 0.00 | 0.00 | 84 | 1015.2 |
| 20260507050050 | 9 | 0 | 0.0 | 3.2 | 0.00 | 0.00 | 0.00 | 84 | 1015.3 |
| 20260507045540 | 9 | 0 | 0.0 | 3.2 | 0.00 | 0.00 | 0.00 | 83 | 1015.1 |
| 20260507045038 | 9 | 0 | 0.0 | 1.6 | 0.00 | 0.00 | 0.00 | 83 | 1015.2 |
| 20260507044549 | 9 | 0 | 0.0 | 4.8 | 0.00 | 0.00 | 0.00 | 84 | 1015.0 |
| 20260507044038 | 9 | 0 | 0.0 | 4.8 | 0.00 | 0.00 | 0.00 | 83 | 1015.0 |
| 20260507043539 | 9 | 294 | 0.0 | 3.2 | 0.00 | 0.00 | 0.00 | 83 | 1014.9 |
| 20260507043053 | 9 | 0 | 0.0 | 4.8 | 0.00 | 0.00 | 0.00 | 83 | 1014.8 |
| 20260507042538 | 9 | 0 | 0.0 | 4.8 | 0.00 | 0.00 | 0.00 | 83 | 1014.7 |
| 20260507042042 | 9 | 93 | 0.0 | 3.2 | 0.00 | 0.00 | 0.00 | 82 | 1014.7 |
| 20260507041545 | 9 | 334 | 0.0 | 3.2 | 0.00 | 0.00 | 0.00 | 82 | 1014.7 |
| 20260507041042 | 9 | 56 | 0.0 | 6.4 | 0.00 | 0.00 | 0.00 | 82 | 1014.7 |
| 20260507040541 | 9 | 0 | 0.0 | 6.4 | 0.00 | 0.00 | 0.00 | 82 | 1014.6 |
| 20260507040057 | 9 | 0 | 0.0 | 4.8 | 0.00 | 0.00 | 0.00 | 83 | 1014.6 |
| 20260507035540 | 9 | 0 | 0.0 | 3.2 | 0.00 | 0.00 | 0.00 | 82 | 1014.5 |
| 20260507035040 | 9 | 291 | 0.0 | 3.2 | 0.00 | 0.00 | 0.00 | 82 | 1014.5 |
| 20260507034549 | 9 | 51 | 0.0 | 3.2 | 0.00 | 0.00 | 0.00 | 82 | 1014.4 |
| 20260507034040 | 9 | 51 | 0.0 | 3.2 | 0.00 | 0.00 | 0.00 | 83 | 1014.5 |
| 20260507033541 | 9 | 0 | 0.0 | 3.2 | 0.00 | 0.00 | 0.00 | 83 | 1014.4 |
| 20260507033054 | 9 | 0 | 0.0 | 1.6 | 0.00 | 0.00 | 0.00 | 83 | 1014.4 |
| 20260507032540 | 9 | 0 | 0.0 | 1.6 | 0.00 | 0.00 | 0.00 | 83 | 1014.4 |
| 20260507032040 | 9 | 0 | 0.0 | 1.6 | 0.00 | 0.00 | 0.00 | 83 | 1014.5 |
| 20260507031552 | 9 | 0 | 0.0 | 1.6 | 0.00 | 0.00 | 0.00 | 83 | 1014.4 |
| 20260507031043 | 9 | 0 | 0.0 | 1.6 | 0.00 | 0.00 | 0.00 | 83 | 1014.4 |
| 20260507030540 | 9 | 0 | 0.0 | 1.6 | 0.00 | 0.00 | 0.00 | 83 | 1014.3 |
| 20260507030051 | 9 | 0 | 0.0 | 0.0 | 0.00 | 0.00 | 0.00 | 83 | 1014.4 |
| 20260507025539 | 9 | 0 | 0.0 | 0.0 | 0.00 | 0.00 | 0.00 | 83 | 1014.4 |
| 20260507025041 | 9 | 0 | 0.0 | 1.6 | 0.00 | 0.00 | 0.00 | 83 | 1014.3 |
| 20260507024605 | 9 | 0 | 0.0 | 1.6 | 0.00 | 0.00 | 0.00 | 83 | 1014.3 |
| 20260507024042 | 9 | 0 | 0.0 | 1.6 | 0.00 | 0.00 | 0.00 | 83 | 1014.3 |
| 20260507023541 | 9 | 0 | 0.0 | 1.6 | 0.00 | 0.00 | 0.00 | 83 | 1014.3 |
| 20260507023053 | 9 | 0 | 0.0 | 1.6 | 0.00 | 0.00 | 0.00 | 82 | 1014.3 |
| 20260507022540 | 9 | 0 | 0.0 | 1.6 | 0.00 | 0.00 | 0.00 | 82 | 1014.3 |
| 20260507022039 | 9 | 0 | 0.0 | 1.6 | 0.00 | 0.00 | 0.00 | 82 | 1014.2 |
| 20260507021553 | 9 | 0 | 0.0 | 1.6 | 0.00 | 0.00 | 0.00 | 81 | 1014.2 |
| 20260507021042 | 9 | 0 | 0.0 | 1.6 | 0.00 | 0.00 | 0.00 | 82 | 1014.2 |
| 20260507020541 | 9 | 0 | 0.0 | 1.6 | 0.00 | 0.00 | 0.00 | 82 | 1014.2 |
| 20260507020109 | 9 | 0 | 0.0 | 1.6 | 0.00 | 0.00 | 0.00 | 81 | 1014.1 |
| 20260507015540 | 9 | 0 | 0.0 | 1.6 | 0.00 | 0.00 | 0.00 | 82 | 1014.0 |
| 20260507015039 | 9 | 0 | 0.0 | 1.6 | 0.00 | 0.00 | 0.00 | 82 | 1014.0 |
| 20260507014601 | 9 | 0 | 0.0 | 1.6 | 0.00 | 0.00 | 0.00 | 82 | 1013.9 |
| 20260507014039 | 9 | 298 | 0.0 | 1.6 | 0.00 | 0.00 | 0.00 | 81 | 1013.9 |
| 20260507013540 | 9 | 0 | 0.0 | 0.0 | 0.00 | 0.00 | 0.00 | 81 | 1013.9 |
| 20260507013055 | 9 | 0 | 0.0 | 0.0 | 0.00 | 0.00 | 0.00 | 81 | 1014.0 |
| 20260507012540 | 9 | 0 | 0.0 | 0.0 | 0.00 | 0.00 | 0.00 | 80 | 1014.0 |
| 20260507012039 | 9 | 0 | 0.0 | 1.6 | 0.00 | 0.00 | 0.00 | 80 | 1013.9 |
| 20260507011548 | 9 | 0 | 0.0 | 1.6 | 0.00 | 0.00 | 0.00 | 80 | 1013.9 |
| 20260507011041 | 9 | 0 | 0.0 | 1.6 | 0.00 | 0.00 | 0.00 | 80 | 1013.9 |
| 20260507010540 | 9 | 0 | 0.0 | 1.6 | 0.00 | 0.00 | 0.00 | 80 | 1013.8 |
| 20260507010056 | 9 | 0 | 0.0 | 1.6 | 0.00 | 0.00 | 0.00 | 80 | 1013.9 |
| 20260507005539 | 9 | 0 | 0.0 | 1.6 | 0.00 | 0.00 | 0.00 | 80 | 1013.9 |
| 20260507005045 | 9 | 0 | 0.0 | 1.6 | 0.00 | 0.00 | 0.00 | 81 | 1014.0 |
| 20260507004602 | 9 | 0 | 0.0 | 1.6 | 0.00 | 0.00 | 0.00 | 81 | 1013.9 |
| 20260507004041 | 9 | 0 | 0.0 | 1.6 | 0.00 | 0.00 | 0.00 | 81 | 1014.0 |
| 20260507003540 | 10 | 0 | 0.0 | 1.6 | 0.00 | 0.00 | 0.00 | 81 | 1013.9 |
| 20260507003052 | 9 | 0 | 0.0 | 1.6 | 0.00 | 0.00 | 0.00 | 81 | 1013.9 |
| 20260507002539 | 9 | 0 | 0.0 | 1.6 | 0.00 | 0.00 | 0.00 | 81 | 1013.9 |
| 20260507002040 | 9 | 0 | 0.0 | 1.6 | 0.00 | 0.00 | 0.00 | 80 | 1013.8 |
| 20260507001551 | 9 | 0 | 0.0 | 1.6 | 0.00 | 0.00 | 0.00 | 80 | 1013.7 |
| 20260507001040 | 9 | 291 | 0.0 | 1.6 | 0.00 | 0.00 | 0.00 | 80 | 1013.8 |
| 20260507000545 | 9 | 0 | 0.0 | 3.2 | 0.00 | 0.00 | 0.00 | 80 | 1013.8 |
| 20260507000052 | 9 | 0 | 0.0 | 3.2 | 0.00 | 0.00 | 0.00 | 81 | 1013.8 |
| 20260506235545 | 9 | 0 | 0.0 | 3.2 | 0.00 | 0.00 | 0.00 | 80 | 1013.8 |
| 20260506235039 | 9 | 0 | 0.0 | 3.2 | 0.00 | 0.00 | 0.00 | 79 | 1013.8 |
| 20260506234551 | 9 | 0 | 0.0 | 3.2 | 0.00 | 0.00 | 0.00 | 80 | 1013.8 |
| 20260506234041 | 9 | 0 | 0.0 | 3.2 | 0.00 | 0.00 | 0.00 | 80 | 1013.8 |
| 20260506233612 | 9 | 282 | 0.0 | 1.6 | 0.00 | 0.00 | 0.00 | 80 | 1013.8 |
| 20260506233101 | 9 | 0 | 0.0 | 1.6 | 0.00 | 0.00 | 0.00 | 79 | 1013.7 |
| 20260506232542 | 10 | 0 | 0.0 | 1.6 | 0.00 | 0.00 | 0.00 | 79 | 1013.7 |
| 20260506232040 | 9 | 0 | 0.0 | 1.6 | 0.00 | 0.00 | 0.00 | 79 | 1013.7 |
| 20260506231543 | 10 | 0 | 0.0 | 1.6 | 0.00 | 0.00 | 0.00 | 79 | 1013.7 |
| 20260506231040 | 10 | 309 | 0.0 | 1.6 | 0.00 | 0.00 | 0.00 | 79 | 1013.7 |
| 20260506230539 | 10 | 0 | 0.0 | 1.6 | 0.00 | 0.00 | 0.00 | 79 | 1013.6 |
| 20260506230052 | 10 | 0 | 0.0 | 1.6 | 0.00 | 0.00 | 0.00 | 79 | 1013.5 |
| 20260506225540 | 10 | 0 | 0.0 | 3.2 | 0.00 | 0.03 | 0.00 | 80 | 1013.5 |
| 20260506225042 | 10 | 0 | 0.0 | 3.2 | 0.00 | 0.03 | 0.00 | 80 | 1013.4 |
| 20260506224551 | 10 | 0 | 0.0 | 3.2 | 0.00 | 0.03 | 0.00 | 80 | 1013.4 |
| 20260506224039 | 10 | 0 | 0.0 | 3.2 | 0.00 | 0.03 | 0.00 | 78 | 1013.3 |
| 20260506223539 | 10 | 0 | 0.0 | 3.2 | 0.00 | 0.03 | 0.00 | 78 | 1013.3 |
| 20260506223049 | 10 | 325 | 0.0 | 3.2 | 0.00 | 0.03 | 0.00 | 78 | 1013.3 |
| 20260506222540 | 10 | 0 | 0.0 | 1.6 | 0.00 | 0.03 | 0.00 | 77 | 1013.2 |
| 20260506222037 | 10 | 0 | 0.0 | 3.2 | 0.00 | 0.03 | 0.00 | 78 | 1013.1 |
| 20260506221548 | 10 | 0 | 0.0 | 3.2 | 0.00 | 0.03 | 0.00 | 78 | 1013.2 |
| 20260506221038 | 10 | 0 | 0.0 | 3.2 | 0.00 | 0.03 | 0.00 | 77 | 1013.2 |
| 20260506220543 | 10 | 0 | 0.0 | 3.2 | 0.00 | 0.03 | 0.00 | 77 | 1013.1 |
| 20260506220051 | 10 | 0 | 0.0 | 3.2 | 0.00 | 0.03 | 0.00 | 76 | 1013.1 |
| 20260506215542 | 10 | 9 | 0.0 | 4.8 | 0.00 | 0.03 | 0.03 | 76 | 1013.1 |
| 20260506215041 | 10 | 26 | 0.0 | 4.8 | 0.00 | 0.03 | 0.03 | 75 | 1013.0 |
| 20260506214544 | 10 | 334 | 0.0 | 6.4 | 0.00 | 0.03 | 0.03 | 74 | 1013.0 |
| 20260506214041 | 10 | 0 | 0.0 | 6.4 | 0.00 | 0.03 | 0.03 | 75 | 1013.0 |
| 20260506213540 | 10 | 325 | 0.0 | 6.4 | 0.00 | 0.03 | 0.03 | 74 | 1013.0 |
| 20260506213109 | 10 | 51 | 0.0 | 6.4 | 0.00 | 0.03 | 0.03 | 74 | 1012.9 |
| 20260506212541 | 10 | 0 | 0.0 | 6.4 | 0.00 | 0.03 | 0.03 | 74 | 1012.8 |
| 20260506212039 | 10 | 41 | 0.0 | 6.4 | 0.00 | 0.03 | 0.03 | 75 | 1012.8 |
| 20260506211548 | 10 | 44 | 0.0 | 4.8 | 0.00 | 0.03 | 0.03 | 75 | 1012.8 |
| 20260506211041 | 10 | 34 | 0.0 | 3.2 | 0.00 | 0.03 | 0.03 | 75 | 1012.8 |
| 20260506210541 | 10 | 0 | 0.0 | 3.2 | 0.00 | 0.03 | 0.03 | 75 | 1012.8 |
| 20260506210049 | 10 | 309 | 0.0 | 3.2 | 0.00 | 0.03 | 0.03 | 75 | 1012.8 |
| 20260506205540 | 10 | 0 | 0.0 | 6.4 | 0.00 | 0.03 | 0.03 | 75 | 1012.7 |
| 20260506205041 | 10 | 0 | 1.6 | 8.0 | 0.00 | 0.03 | 0.03 | 74 | 1012.6 |
| 20260506204550 | 10 | 76 | 1.6 | 8.0 | 0.00 | 0.03 | 0.03 | 74 | 1012.6 |
| 20260506204040 | 10 | 51 | 1.6 | 4.8 | 0.00 | 0.03 | 0.03 | 75 | 1012.5 |
| 20260506203541 | 10 | 17 | 0.0 | 4.8 | 0.00 | 0.03 | 0.03 | 75 | 1012.5 |
| 20260506203058 | 10 | 0 | 0.0 | 4.8 | 0.00 | 0.03 | 0.03 | 75 | 1012.5 |
| 20260506202544 | 10 | 0 | 0.0 | 4.8 | 0.00 | 0.03 | 0.03 | 75 | 1012.5 |
| 20260506202042 | 10 | 51 | 0.0 | 3.2 | 0.00 | 0.03 | 0.03 | 75 | 1012.4 |
| 20260506201549 | 10 | 0 | 0.0 | 6.4 | 0.00 | 0.03 | 0.03 | 74 | 1012.4 |
| 20260506201044 | 10 | 0 | 0.0 | 6.4 | 0.00 | 0.03 | 0.03 | 74 | 1012.3 |
| 20260506200541 | 10 | 325 | 0.0 | 8.0 | 0.00 | 0.03 | 0.03 | 74 | 1012.3 |
| 20260506200051 | 10 | 319 | 1.6 | 9.7 | 0.00 | 0.03 | 0.03 | 73 | 1012.4 |
| 20260506195541 | 11 | 0 | 0.0 | 9.7 | 0.00 | 0.03 | 0.03 | 73 | 1012.3 |
| 20260506195045 | 11 | 39 | 1.6 | 11.3 | 0.00 | 0.03 | 0.03 | 73 | 1012.4 |
| 20260506194549 | 11 | 41 | 1.6 | 11.3 | 0.00 | 0.03 | 0.03 | 73 | 1012.3 |
| 20260506194041 | 11 | 9 | 1.6 | 9.7 | 0.00 | 0.03 | 0.03 | 72 | 1012.2 |
| 20260506193541 | 11 | 9 | 3.2 | 9.7 | 0.00 | 0.03 | 0.03 | 72 | 1012.3 |
| 20260506193043 | 11 | 9 | 3.2 | 9.7 | 0.00 | 0.03 | 0.03 | 72 | 1012.2 |
| 20260506192543 | 11 | 15 | 1.6 | 12.9 | 0.00 | 0.03 | 0.03 | 73 | 1012.2 |
| 20260506192041 | 11 | 0 | 1.6 | 12.9 | 0.00 | 0.03 | 0.03 | 74 | 1012.2 |
| 20260506191544 | 11 | 68 | 0.0 | 11.3 | 0.00 | 0.03 | 0.03 | 74 | 1012.1 |
| 20260506191043 | 11 | 338 | 1.6 | 9.7 | 0.00 | 0.03 | 0.03 | 74 | 1012.1 |
| 20260506190543 | 11 | 55 | 1.6 | 9.7 | 0.00 | 0.03 | 0.03 | 74 | 1012.0 |
| 20260506190053 | 11 | 332 | 1.6 | 12.9 | 0.00 | 0.03 | 0.03 | 74 | 1012.0 |
| 20260506185541 | 11 | 301 | 1.6 | 12.9 | 0.00 | 0.03 | 0.03 | 74 | 1011.8 |
| 20260506185042 | 11 | 309 | 1.6 | 11.3 | 0.00 | 0.03 | 0.03 | 73 | 1011.9 |
| 20260506184552 | 11 | 0 | 1.6 | 14.5 | 0.00 | 0.03 | 0.03 | 73 | 1011.9 |
| 20260506184042 | 11 | 46 | 4.8 | 14.5 | 0.00 | 0.03 | 0.03 | 72 | 1011.8 |
| 20260506183543 | 11 | 321 | 3.2 | 12.9 | 0.00 | 0.03 | 0.03 | 72 | 1011.8 |
| 20260506183058 | 11 | 338 | 1.6 | 12.9 | 0.00 | 0.03 | 0.03 | 72 | 1011.7 |
| 20260506182541 | 11 | 9 | 4.8 | 14.5 | 0.00 | 0.03 | 0.03 | 71 | 1011.7 |
| 20260506182041 | 11 | 347 | 4.8 | 17.7 | 0.00 | 0.03 | 0.03 | 71 | 1011.6 |
| 20260506181613 | 11 | 39 | 4.8 | 20.9 | 0.00 | 0.03 | 0.03 | 70 | 1011.5 |
| 20260506181041 | 11 | 34 | 4.8 | 20.9 | 0.00 | 0.03 | 0.03 | 70 | 1011.5 |
| 20260506180541 | 11 | 31 | 4.8 | 19.3 | 0.00 | 0.03 | 0.03 | 69 | 1011.4 |
| 20260506180050 | 12 | 348 | 6.4 | 19.3 | 0.00 | 0.03 | 0.03 | 69 | 1011.3 |
| 20260506175544 | 12 | 76 | 3.2 | 11.3 | 0.00 | 0.03 | 0.03 | 69 | 1011.2 |
| 20260506175046 | 12 | 131 | 3.2 | 16.1 | 0.00 | 0.03 | 0.03 | 69 | 1011.2 |
| 20260506174551 | 12 | 57 | 3.2 | 17.7 | 0.00 | 0.03 | 0.03 | 68 | 1011.0 |
| 20260506174043 | 12 | 15 | 4.8 | 17.7 | 0.00 | 0.03 | 0.03 | 68 | 1010.9 |
| 20260506173541 | 12 | 9 | 3.2 | 12.9 | 0.00 | 0.03 | 0.03 | 67 | 1010.8 |
| 20260506173059 | 12 | 34 | 3.2 | 9.7 | 0.00 | 0.03 | 0.03 | 67 | 1010.8 |
| 20260506172542 | 12 | 59 | 3.2 | 9.7 | 0.00 | 0.03 | 0.03 | 67 | 1010.7 |
| 20260506172047 | 12 | 26 | 1.6 | 16.1 | 0.00 | 0.03 | 0.03 | 67 | 1010.6 |
| 20260506171546 | 12 | 42 | 3.2 | 16.1 | 0.00 | 0.03 | 0.03 | 66 | 1010.6 |
| 20260506171041 | 12 | 265 | 4.8 | 16.1 | 0.00 | 0.03 | 0.03 | 64 | 1010.5 |
| 20260506170544 | 12 | 325 | 3.2 | 16.1 | 0.00 | 0.03 | 0.03 | 63 | 1010.5 |
| 20260506170052 | 13 | 265 | 4.8 | 16.1 | 0.00 | 0.03 | 0.03 | 62 | 1010.4 |
| 20260506165538 | 13 | 338 | 6.4 | 16.1 | 0.00 | 0.03 | 0.03 | 61 | 1010.3 |
| 20260506165041 | 13 | 38 | 4.8 | 14.5 | 0.00 | 0.03 | 0.03 | 61 | 1010.3 |
| 20260506164549 | 13 | 340 | 3.2 | 16.1 | 0.00 | 0.03 | 0.03 | 59 | 1010.2 |
| 20260506164040 | 14 | 38 | 4.8 | 16.1 | 0.00 | 0.03 | 0.03 | 61 | 1010.2 |
| 20260506163542 | 14 | 9 | 3.2 | 12.9 | 0.00 | 0.03 | 0.03 | 61 | 1010.2 |
| 20260506163047 | 14 | 32 | 3.2 | 14.5 | 0.00 | 0.03 | 0.03 | 61 | 1010.1 |
| 20260506162538 | 14 | 72 | 3.2 | 16.1 | 0.00 | 0.03 | 0.03 | 61 | 1010.1 |
| 20260506162038 | 14 | 144 | 3.2 | 16.1 | 0.00 | 0.03 | 0.03 | 64 | 1010.0 |
| 20260506161548 | 13 | 330 | 3.2 | 12.9 | 0.00 | 0.03 | 0.03 | 63 | 1010.0 |
| 20260506161040 | 13 | 36 | 3.2 | 14.5 | 0.00 | 0.03 | 0.03 | 65 | 1009.9 |
| 20260506160540 | 13 | 0 | 3.2 | 14.5 | 0.00 | 0.03 | 0.03 | 65 | 1010.0 |
| 20260506160054 | 14 | 295 | 4.8 | 14.5 | 0.00 | 0.03 | 0.03 | 66 | 1009.9 |
| 20260506155543 | 13 | 48 | 4.8 | 14.5 | 0.00 | 0.03 | 0.03 | 65 | 1009.9 |
| 20260506155042 | 14 | 275 | 3.2 | 11.3 | 0.00 | 0.03 | 0.03 | 65 | 1009.8 |
| 20260506154552 | 13 | 45 | 1.6 | 12.9 | 0.00 | 0.03 | 0.03 | 66 | 1009.9 |
| 20260506154041 | 14 | 9 | 3.2 | 12.9 | 0.00 | 0.03 | 0.03 | 65 | 1009.8 |
| 20260506153540 | 14 | 72 | 1.6 | 11.3 | 0.00 | 0.03 | 0.03 | 65 | 1009.8 |
| 20260506153105 | 14 | 334 | 1.6 | 14.5 | 0.00 | 0.03 | 0.03 | 65 | 1009.8 |
| 20260506152543 | 14 | 51 | 3.2 | 19.3 | 0.00 | 0.03 | 0.03 | 65 | 1009.7 |
| 20260506152039 | 14 | 43 | 6.4 | 19.3 | 0.00 | 0.03 | 0.03 | 63 | 1009.8 |
| 20260506151551 | 15 | 314 | 4.8 | 14.5 | 0.00 | 0.03 | 0.03 | 63 | 1009.7 |
| 20260506151042 | 15 | 74 | 3.2 | 14.5 | 0.00 | 0.03 | 0.03 | 63 | 1009.7 |
| 20260506150537 | 15 | 36 | 1.6 | 12.9 | 0.00 | 0.03 | 0.03 | 63 | 1009.6 |
| 20260506150057 | 15 | 279 | 1.6 | 9.7 | 0.00 | 0.03 | 0.03 | 63 | 1009.7 |
| 20260506145538 | 15 | 22 | 1.6 | 9.7 | 0.00 | 0.03 | 0.03 | 63 | 1009.6 |
| 20260506145040 | 15 | 9 | 1.6 | 11.3 | 0.00 | 0.03 | 0.03 | 63 | 1009.6 |
| 20260506144555 | 15 | 44 | 1.6 | 12.9 | 0.00 | 0.03 | 0.03 | 64 | 1009.6 |
| 20260506144041 | 15 | 321 | 3.2 | 12.9 | 0.00 | 0.03 | 0.03 | 63 | 1009.7 |
| 20260506143540 | 15 | 41 | 3.2 | 12.9 | 0.00 | 0.03 | 0.03 | 64 | 1009.6 |
| 20260506143044 | 15 | 51 | 1.6 | 12.9 | 0.00 | 0.03 | 0.03 | 62 | 1009.7 |
| 20260506142539 | 15 | 46 | 1.6 | 12.9 | 0.00 | 0.03 | 0.03 | 62 | 1009.7 |
| 20260506142042 | 15 | 126 | 1.6 | 12.9 | 0.00 | 0.03 | 0.03 | 64 | 1009.7 |
| 20260506141550 | 15 | 270 | 1.6 | 16.1 | 0.00 | 0.03 | 0.03 | 61 | 1009.6 |
| 20260506141042 | 15 | 68 | 3.2 | 16.1 | 0.00 | 0.03 | 0.03 | 61 | 1009.6 |
| 20260506140546 | 15 | 342 | 3.2 | 16.1 | 0.00 | 0.03 | 0.03 | 60 | 1009.6 |
| 20260506140050 | 15 | 309 | 1.6 | 12.9 | 0.00 | 0.03 | 0.03 | 61 | 1009.7 |
| 20260506135540 | 15 | 31 | 3.2 | 12.9 | 0.00 | 0.03 | 0.03 | 61 | 1009.6 |
| 20260506135042 | 15 | 73 | 1.6 | 16.1 | 0.00 | 0.03 | 0.03 | 61 | 1009.6 |
| 20260506134551 | 15 | 334 | 3.2 | 16.1 | 0.00 | 0.03 | 0.03 | 63 | 1009.5 |
| 20260506134046 | 15 | 34 | 4.8 | 14.5 | 0.00 | 0.03 | 0.03 | 60 | 1009.5 |
| 20260506133540 | 15 | 305 | 3.2 | 12.9 | 0.00 | 0.03 | 0.03 | 61 | 1009.6 |
| 20260506133051 | 15 | 273 | 1.6 | 12.9 | 0.00 | 0.03 | 0.03 | 64 | 1009.5 |
| 20260506132545 | 15 | 61 | 3.2 | 12.9 | 0.00 | 0.03 | 0.03 | 62 | 1009.5 |
| 20260506132043 | 15 | 316 | 3.2 | 11.3 | 0.00 | 0.03 | 0.03 | 63 | 1009.4 |
| 20260506131554 | 16 | 338 | 3.2 | 9.7 | 0.00 | 0.03 | 0.03 | 61 | 1009.5 |
| 20260506131040 | 16 | 93 | 1.6 | 12.9 | 0.00 | 0.03 | 0.03 | 63 | 1009.4 |
| 20260506130541 | 15 | 265 | 1.6 | 12.9 | 0.00 | 0.03 | 0.03 | 66 | 1009.4 |
| 20260506130043 | 14 | 282 | 1.6 | 9.7 | 0.00 | 0.03 | 0.03 | 65 | 1009.4 |
| 20260506125540 | 14 | 221 | 1.6 | 8.0 | 0.00 | 0.03 | 0.03 | 66 | 1009.4 |
| 20260506125040 | 15 | 304 | 1.6 | 11.3 | 0.00 | 0.03 | 0.03 | 67 | 1009.4 |
| 20260506124546 | 15 | 111 | 1.6 | 11.3 | 0.00 | 0.03 | 0.03 | 69 | 1009.2 |
| 20260506124040 | 14 | 291 | 1.6 | 6.4 | 0.00 | 0.03 | 0.03 | 69 | 1009.4 |
| 20260506123538 | 13 | 196 | 0.0 | 6.4 | 0.00 | 0.03 | 0.03 | 72 | 1009.5 |
| 20260506123048 | 13 | 16 | 0.0 | 6.4 | 0.00 | 0.03 | 0.03 | 72 | 1009.4 |
| 20260506122542 | 13 | 0 | 1.6 | 6.4 | 0.00 | 0.03 | 0.03 | 74 | 1009.4 |
| 20260506122040 | 13 | 291 | 0.0 | 8.0 | 0.00 | 0.03 | 0.03 | 73 | 1009.5 |
| 20260506121547 | 12 | 0 | 1.6 | 8.0 | 0.00 | 0.03 | 0.03 | 73 | 1009.5 |
| 20260506121042 | 13 | 309 | 1.6 | 8.0 | 0.00 | 0.03 | 0.03 | 73 | 1009.5 |
| 20260506120541 | 13 | 51 | 1.6 | 8.0 | 0.00 | 0.03 | 0.03 | 73 | 1009.5 |
| 20260506120049 | 13 | 0 | 1.6 | 11.3 | 0.00 | 0.03 | 0.03 | 73 | 1009.4 |
| 20260506115540 | 13 | 309 | 3.2 | 11.3 | 0.00 | 0.05 | 0.03 | 71 | 1009.4 |
| 20260506115040 | 14 | 38 | 3.2 | 9.7 | 0.00 | 0.05 | 0.03 | 72 | 1009.4 |
| 20260506114553 | 13 | 41 | 1.6 | 9.7 | 0.00 | 0.05 | 0.03 | 74 | 1009.3 |
| 20260506114040 | 13 | 309 | 1.6 | 11.3 | 0.00 | 0.05 | 0.03 | 74 | 1009.3 |
| 20260506113538 | 12 | 63 | 1.6 | 11.3 | 0.00 | 0.05 | 0.03 | 74 | 1009.3 |
| 20260506113050 | 12 | 56 | 1.6 | 8.0 | 0.00 | 0.05 | 0.03 | 73 | 1009.2 |
| 20260506112538 | 12 | 9 | 1.6 | 9.7 | 0.00 | 0.05 | 0.03 | 74 | 1009.3 |
| 20260506112041 | 12 | 51 | 1.6 | 9.7 | 0.00 | 0.05 | 0.03 | 74 | 1009.3 |
| 20260506111545 | 12 | 0 | 0.0 | 6.4 | 0.00 | 0.05 | 0.03 | 75 | 1009.4 |
| 20260506111040 | 12 | 80 | 1.6 | 12.9 | 0.00 | 0.05 | 0.03 | 74 | 1009.3 |
| 20260506110543 | 12 | 336 | 1.6 | 12.9 | 0.00 | 0.05 | 0.03 | 74 | 1009.3 |
| 20260506110048 | 12 | 342 | 1.6 | 9.7 | 0.00 | 0.05 | 0.03 | 74 | 1009.3 |
| 20260506105539 | 13 | 227 | 1.6 | 14.5 | 0.00 | 0.05 | 0.03 | 73 | 1009.4 |
| 20260506105042 | 13 | 80 | 1.6 | 14.5 | 0.00 | 0.05 | 0.03 | 72 | 1009.4 |
| 20260506104555 | 13 | 334 | 1.6 | 14.5 | 0.00 | 0.05 | 0.03 | 74 | 1009.4 |
| 20260506104038 | 13 | 0 | 1.6 | 14.5 | 0.00 | 0.05 | 0.03 | 75 | 1009.3 |
| 20260506103539 | 13 | 18 | 3.2 | 11.3 | 0.00 | 0.05 | 0.03 | 75 | 1009.4 |
| 20260506103052 | 13 | 286 | 1.6 | 11.3 | 0.00 | 0.05 | 0.03 | 75 | 1009.2 |
| 20260506102539 | 13 | 298 | 3.2 | 11.3 | 0.00 | 0.05 | 0.03 | 75 | 1009.3 |
| 20260506102040 | 13 | 265 | 1.6 | 9.7 | 0.00 | 0.05 | 0.03 | 77 | 1009.4 |
| 20260506101548 | 13 | 196 | 1.6 | 9.7 | 0.00 | 0.05 | 0.03 | 79 | 1009.4 |
| 20260506101041 | 13 | 51 | 1.6 | 8.0 | 0.00 | 0.05 | 0.03 | 80 | 1009.3 |
| 20260506100544 | 13 | 316 | 3.2 | 6.4 | 0.00 | 0.05 | 0.03 | 80 | 1009.3 |
| 20260506100045 | 13 | 227 | 1.6 | 8.0 | 0.00 | 0.05 | 0.03 | 82 | 1009.3 |
| 20260506095540 | 12 | 0 | 1.6 | 8.0 | 0.00 | 0.05 | 0.03 | 82 | 1009.2 |
| 20260506095040 | 12 | 323 | 1.6 | 6.4 | 0.00 | 0.05 | 0.03 | 83 | 1009.3 |
| 20260506094549 | 12 | 131 | 1.6 | 8.0 | 0.00 | 0.05 | 0.03 | 83 | 1009.3 |
| 20260506094043 | 12 | 9 | 1.6 | 8.0 | 0.00 | 0.05 | 0.03 | 84 | 1009.3 |
| 20260506093539 | 12 | 46 | 1.6 | 6.4 | 0.00 | 0.05 | 0.03 | 86 | 1009.2 |
| 20260506093049 | 12 | 9 | 1.6 | 6.4 | 0.00 | 0.05 | 0.03 | 85 | 1009.3 |
| 20260506092540 | 12 | 9 | 1.6 | 8.0 | 0.00 | 0.05 | 0.03 | 85 | 1009.2 |
| 20260506092042 | 11 | 298 | 1.6 | 9.7 | 0.00 | 0.05 | 0.03 | 86 | 1009.1 |
| 20260506091555 | 11 | 137 | 1.6 | 9.7 | 0.00 | 0.05 | 0.03 | 87 | 1009.1 |
| 20260506091044 | 11 | 311 | 1.6 | 6.4 | 0.00 | 0.05 | 0.03 | 88 | 1009.1 |
| 20260506090544 | 11 | 247 | 1.6 | 4.8 | 0.00 | 0.05 | 0.03 | 89 | 1009.1 |
| 20260506090059 | 11 | 309 | 1.6 | 6.4 | 0.00 | 0.05 | 0.03 | 90 | 1009.1 |
| 20260506085539 | 11 | 346 | 1.6 | 6.4 | 0.00 | 0.05 | 0.03 | 90 | 1009.0 |
| 20260506085040 | 10 | 336 | 1.6 | 6.4 | 0.00 | 0.05 | 0.03 | 91 | 1009.1 |
| 20260506084550 | 10 | 9 | 1.6 | 6.4 | 0.00 | 0.05 | 0.03 | 91 | 1009.1 |
| 20260506084042 | 10 | 51 | 1.6 | 6.4 | 0.00 | 0.05 | 0.03 | 91 | 1009.0 |
| 20260506083539 | 10 | 0 | 1.6 | 6.4 | 0.00 | 0.05 | 0.03 | 92 | 1009.1 |
| 20260506083050 | 10 | 9 | 1.6 | 6.4 | 0.00 | 0.05 | 0.03 | 92 | 1009.0 |
| 20260506082540 | 10 | 325 | 1.6 | 6.4 | 0.00 | 0.05 | 0.03 | 92 | 1008.9 |
| 20260506082040 | 10 | 309 | 1.6 | 4.8 | 0.00 | 0.05 | 0.03 | 92 | 1009.0 |
| 20260506081549 | 10 | 316 | 0.0 | 6.4 | 0.00 | 0.05 | 0.03 | 92 | 1008.9 |
| 20260506081041 | 10 | 38 | 1.6 | 6.4 | 0.00 | 0.05 | 0.03 | 92 | 1008.9 |
| 20260506080539 | 10 | 34 | 1.6 | 6.4 | 0.00 | 0.05 | 0.03 | 93 | 1008.9 |
| 20260506073045 | 9 | 330 | 1.6 | 8.0 | 0.00 | 0.08 | 0.03 | 92 | 1008.9 |
| 20260506072539 | 9 | 0 | 0.0 | 6.4 | 0.00 | 0.08 | 0.03 | 92 | 1008.8 |
| 20260506072042 | 8 | 0 | 1.6 | 6.4 | 0.00 | 0.08 | 0.03 | 93 | 1008.8 |
| 20260506071602 | 8 | 9 | 1.6 | 6.4 | 0.00 | 0.05 | 0.00 | 92 | 1008.8 |
| 20260506071041 | 8 | 26 | 1.6 | 6.4 | 0.00 | 0.05 | 0.00 | 92 | 1008.8 |
| 20260506070541 | 8 | 0 | 1.6 | 6.4 | 0.00 | 0.05 | 0.00 | 92 | 1008.8 |
| 20260506062040 | 8 | 93 | 1.6 | 11.3 | 0.00 | 0.05 | 0.00 | 91 | 1008.8 |
| 20260506061553 | 8 | 0 | 1.6 | 11.3 | 0.00 | 0.05 | 0.00 | 91 | 1008.6 |